TimeCST,TemperatureF,Dew PointF,Humidity,Sea Level PressureIn,VisibilityMPH,Wind Direction,Wind SpeedMPH,Gust SpeedMPH,PrecipitationIn,Events,Conditions,WindDirDegrees,DateUTC
12:52 AM,61.0,53.1,75,29.96,10.0,SSW,16.1,21.9,N/A,,Clear,200,2012-12-01 06:52:00
1:52 AM,61.0,55.0,81,29.96,10.0,SSW,17.3,25.3,N/A,,Clear,200,2012-12-01 07:52:00
2:52 AM,61.0,57.0,87,29.95,10.0,South,15.0,23.0,N/A,,Clear,190,2012-12-01 08:52:00
3:52 AM,61.0,57.0,87,29.94,10.0,SSW,18.4,29.9,N/A,,Clear,200,2012-12-01 09:52:00
4:52 AM,62.1,59.0,90,29.94,10.0,SSW,17.3,27.6,N/A,,Partly Cloudy,200,2012-12-01 10:52:00
5:52 AM,62.1,59.0,90,29.94,10.0,SSW,19.6,28.8,N/A,,Clear,200,2012-12-01 11:52:00
6:52 AM,62.1,57.9,86,29.97,10.0,SSW,19.6,27.6,N/A,,Scattered Clouds,200,2012-12-01 12:52:00
7:52 AM,62.1,57.9,86,29.98,10.0,SSW,18.4,26.5,N/A,,Clear,200,2012-12-01 13:52:00
8:52 AM,64.0,57.9,80,29.99,10.0,SSW,24.2,31.1,N/A,,Clear,210,2012-12-01 14:52:00
9:52 AM,68.0,59.0,73,29.98,10.0,SSW,26.5,34.5,N/A,,Clear,200,2012-12-01 15:52:00
10:52 AM,71.1,59.0,66,29.99,10.0,South,19.6,26.5,N/A,,Clear,190,2012-12-01 16:52:00
11:52 AM,73.9,59.0,59,29.96,10.0,South,18.4,24.2,N/A,,Clear,190,2012-12-01 17:52:00
12:52 PM,77.0,57.0,50,29.93,10.0,SW,18.4,24.2,N/A,,Clear,230,2012-12-01 18:52:00
1:52 PM,79.0,55.9,45,29.91,10.0,SW,16.1,-,N/A,,Clear,220,2012-12-01 19:52:00
2:52 PM,81.0,51.1,35,29.89,10.0,SW,12.7,23.0,N/A,,Clear,220,2012-12-01 20:52:00
3:52 PM,80.1,50.0,35,29.89,10.0,SSW,18.4,-,N/A,,Clear,210,2012-12-01 21:52:00
4:52 PM,79.0,48.9,35,29.88,10.0,SSW,13.8,-,N/A,,Clear,210,2012-12-01 22:52:00
5:52 PM,73.0,50.0,44,29.90,10.0,South,8.1,-,N/A,,Clear,190,2012-12-01 23:52:00
6:52 PM,66.9,50.0,54,29.91,10.0,South,8.1,-,N/A,,Clear,180,2012-12-02 00:52:00
7:52 PM,66.9,48.0,51,29.93,10.0,South,9.2,-,N/A,,Clear,180,2012-12-02 01:52:00
8:52 PM,68.0,48.9,50,29.94,10.0,SSW,10.4,-,N/A,,Clear,200,2012-12-02 02:52:00
9:52 PM,68.0,53.1,59,29.95,10.0,SSW,13.8,-,N/A,,Clear,200,2012-12-02 03:52:00
10:52 PM,66.9,55.9,68,29.96,10.0,SSW,13.8,-,N/A,,Clear,200,2012-12-02 04:52:00
11:52 PM,64.9,55.9,73,29.97,10.0,SSW,16.1,-,N/A,,Clear,200,2012-12-02 05:52:00